Regional Weather Roundup
Issued by NWS

Home | Current Version | Previous Version | Text Only | Print | Product List | Glossary Off
Versions: 1 2 3 4 5 6 7 8 9 10 11 12 13 14 15 16 17 18 19 20 21 22 23 24 25 26 27 28 29 30 31 32 33 34 35 36 37 38 39 40 41 42 43 44 45 46 47 48 49 50

000
ASUS45 KABQ 221901
RWRNM
WEATHER ROUNDUP FOR NEW MEXICO
NATIONAL WEATHER SERVICE ALBUQUERQUE NM
1200 PM MST MON DEC 22 2014

NOTE: "FAIR" MEANS FEW OR NO CLOUDS BELOW 12,000 FEET AGL WITH NO
       SIGNIFICANT WEATHER OR OBSTRUCTIONS TO VISION.

      THIS PRODUCT IS RELEASED AS TWO VERSIONS.  ONE VERSION NEAR
      THE TOP OF THE HOUR CONTAINING PRELIMINARY DATA FROM ALBUQUERQUE
      AND OTHER STATIONS.  A FINAL VERSION WITH ADDITIONAL DATA IS
      ISSUED ABOUT 10 MINUTES AFTER THE HOUR.

NMZ501-503-504-510>518-222000-
NORTHWEST PLATEAU/NORTHCENTRAL MOUNTAINS

CITY           SKY/WX    TMP DP  RH WIND       PRES   REMARKS
FARMINGTON     PTSUNNY   46  37  71 W23G29    29.82F
SANTA FE       MOSUNNY   52  28  39 W23G33    29.75F
TAOS           PTSUNNY   45  27  49 W15G26    29.69F
ANGEL FIRE     CLOUDY    36  28  72 SW13G23   29.70F WCI  27

$$
NMZ402-403-502-505>509-222000-
WESTCENTRAL MOUNTAINS/SOUTHWEST MOUNTAINS

CITY           SKY/WX    TMP DP  RH WIND       PRES   REMARKS
GALLUP         SUNNY     48  36  63 SW15      29.93F
GRANTS         SUNNY     53  31  43 NW18G26   29.90F
SILVER CITY    SUNNY     55  32  41 NW22      29.94F

$$
NMZ407-409-411-412-222000-
SOUTHERN DESERTS

CITY           SKY/WX    TMP DP  RH WIND       PRES   REMARKS
LORDSBURG      FAIR      54  34  47 NW8       29.97F
DEMING         SUNNY     58  34  40 W20G25    29.90F
ALAMOGORDO     SUNNY     59  36  41 SE9       29.84F
T OR C         SUNNY     62  32  32 SW9       29.84F

$$
NMZ519>523-222000-
CENTRAL VALLEYS/CENTRAL HIGHLANDS

CITY           SKY/WX    TMP DP  RH WIND       PRES   REMARKS
ALBUQUERQUE    MOSUNNY   55  33  43 SW6       29.82F
DOUBLE EAGLE   MOSUNNY   55  30  38 W21       29.83F
MORIARTY ARPT  FAIR      54  28  37 W26G40    29.78F
CLINES CORNERS MOSUNNY   49  29  46 NW40G49   29.74F
BELEN          FAIR      61  30  31 W22G30    29.82F
SOCORRO        FAIR      65  31  29 NW15G25   29.83F

$$
NMZ524>526-539-540-222000-
SOUTHCENTRAL MOUNTAINS

CITY           SKY/WX    TMP DP  RH WIND       PRES   REMARKS
RUIDOSO        MOSUNNY   54  27  35 NW18G26   29.86S

$$
NMZ527>531-222000-
NORTHEAST HIGHLANDS/NORTHEAST PLAINS

CITY           SKY/WX    TMP DP  RH WIND       PRES   REMARKS
LAS VEGAS      MOSUNNY   53  21  28 NW25G39   29.69F
RATON          LGT SNOW  30  29  96 E9        29.70F VSB 1   WCI  22
CLAYTON          N/A     39  25  57 N14       29.70F WCI  31

$$
NMZ532>537-222000-
EASTCENTRAL PLAINS

CITY           SKY/WX    TMP DP  RH WIND       PRES   REMARKS
TUCUMCARI      CLOUDY    48  27  44 N3        29.74F
CANNON AFB     NOT AVBL
CLOVIS AIRPORT CLOUDY    46  25  42 NE9       29.75F

$$
NMZ028-029-538-222000-
SOUTHEAST PLAINS

CITY           SKY/WX    TMP DP  RH WIND       PRES   REMARKS
ROSWELL        CLOUDY    66  30  26 NW15      29.73F
ARTESIA        CLOUDY    64  32  29 W13       29.75F
CARLSBAD       CLOUDY    67  30  25 W18       29.74F
HOBBS          SUNNY     57  32  38 N14       29.76F


$$


USA.gov is the U.S. government's official web portal to all federal, state and local government web resources and services.